period_start,C,m1,H,J0,J1,J2,J3,J4,J5,JA,JB,JC,JD,JJ,JK,JN,#
2014-08-26 00:01:55,0.04,0.36,0.00,28.85,33.37,35.56,9.39,38.89,1010.27,2012.07,3257.40,3178.23,3439.01,499.90,483.92,8.08,0000 0000 0000 0000 000000
2014-08-26 00:06:57,0.01,0.36,0.00,28.87,33.37,35.55,9.24,38.74,1010.23,2012.03,3256.90,3177.99,3438.58,499.87,483.92,8.12,0000 0000 0000 0000 000000
2014-08-26 00:11:57,0.04,0.36,0.00,28.88,33.37,35.54,9.38,38.92,1010.14,2012.02,3256.10,3177.60,3438.02,500.24,484.10,8.16,0000 0000 0000 0000 000000
2014-08-26 00:16:59,0.05,0.36,0.00,28.87,33.37,35.54,9.27,38.65,1009.94,2012.02,3255.31,3176.95,3437.34,499.68,483.48,8.20,0000 0000 0000 0000 000000
2014-08-26 00:22:00,0.04,0.37,0.00,28.88,33.37,35.54,9.39,39.23,1009.81,2012.05,3254.53,3176.40,3436.97,500.42,484.04,8.25,0000 0000 0000 0000 000000
2014-08-26 00:27:01,0.06,0.37,0.00,28.91,33.37,35.55,9.29,38.98,1009.78,2012.08,3253.32,3175.84,3436.19,499.53,483.44,8.29,0000 0000 0000 0000 000000
2014-08-26 00:32:02,0.15,0.38,0.00,28.91,33.37,35.55,9.32,38.93,1009.79,2012.10,3250.21,3174.42,3434.52,500.08,483.95,8.33,0000 0000 0000 0000 000000
2014-08-26 00:37:04,0.12,0.38,0.00,28.91,33.37,35.54,9.37,38.94,1009.79,2012.02,3247.43,3172.73,3432.65,500.27,483.89,8.37,0000 0000 0000 0000 000000
2014-08-26 00:42:04,0.09,0.39,0.00,28.93,33.37,35.55,9.32,39.05,1009.78,2012.04,3245.51,3171.42,3431.18,499.98,483.70,8.41,0000 0000 0000 0000 000000
2014-08-26 00:47:05,0.04,0.39,0.00,28.97,33.37,35.55,9.27,39.11,1009.78,2012.06,3244.50,3170.86,3430.34,500.13,483.90,8.45,0000 0000 0000 0000 000000
2014-08-26 00:52:07,0.06,0.39,0.00,28.97,33.37,35.55,9.25,39.02,1009.78,2012.03,3243.37,3170.00,3429.54,499.80,483.56,8.50,0000 0000 0000 0000 000000
2014-08-26 00:57:07,0.15,0.40,0.00,29.00,33.37,35.55,9.37,38.87,1009.79,2012.04,3241.04,3168.29,3427.74,500.53,484.14,8.54,0000 0000 0000 0000 000000
2014-08-26 01:02:09,0.16,0.40,0.00,29.01,33.37,35.56,9.32,38.92,1009.86,2012.10,3238.17,3166.26,3425.48,499.98,483.57,8.58,0000 0000 0000 0000 000000
2014-08-26 01:07:10,0.04,0.41,0.00,29.05,33.39,35.56,9.31,38.93,1010.02,2012.07,3237.04,3165.24,3424.43,500.09,483.68,8.62,0000 0000 0000 0000 000000
2014-08-26 01:12:11,0.01,0.41,0.00,29.09,33.40,35.57,9.31,38.77,1010.23,2012.02,3236.62,3164.93,3423.97,500.23,483.91,8.66,0000 0000 0000 0000 000000
2014-08-26 01:17:12,0.04,0.41,0.00,29.13,33.40,35.59,9.32,38.68,1010.26,2012.00,3236.01,3164.23,3423.22,499.75,483.12,8.71,0000 0000 0000 0000 000000
2014-08-26 01:22:14,0.00,0.41,0.00,29.16,33.42,35.58,9.30,38.75,1010.21,2012.01,3235.94,3164.02,3423.01,500.28,483.79,8.75,0000 0000 0000 0000 000000
2014-08-26 01:27:15,0.02,0.41,0.00,29.20,33.42,35.60,9.23,38.54,1010.27,2012.00,3235.21,3163.97,3422.73,499.88,483.55,8.79,0000 0000 0000 0000 000000
2014-08-26 01:32:16,0.03,0.41,0.00,29.23,33.45,35.62,9.20,38.73,1010.27,2012.00,3234.92,3163.45,3422.07,499.91,483.21,8.83,0000 0000 0000 0000 000000
2014-08-26 01:37:17,0.02,0.41,0.00,29.26,33.45,35.63,9.30,38.83,1010.27,2012.00,3234.15,3163.01,3421.91,499.66,483.09,8.87,0000 0000 0000 0000 000000
2014-08-26 01:42:18,0.01,0.41,0.00,29.27,33.47,35.64,9.33,38.70,1010.25,2012.00,3234.00,3162.98,3421.42,499.98,483.25,8.91,0000 0000 0000 0000 000000
2014-08-26 01:47:19,0.03,0.42,0.00,29.30,33.49,35.66,9.25,38.73,1010.08,2011.98,3233.48,3162.34,3421.01,499.74,483.00,8.96,0000 0000 0000 0000 000000
2014-08-26 01:52:20,0.01,0.42,0.00,29.33,33.50,35.67,9.31,38.75,1009.83,2011.97,3233.05,3162.04,3420.90,500.08,483.06,9.00,0000 0000 0000 0000 000000
2014-08-26 01:57:21,0.01,0.42,0.00,29.37,33.52,35.70,9.31,38.64,1009.85,2011.91,3232.97,3162.00,3420.24,500.22,483.25,9.04,0000 0000 0000 0000 000000
2014-08-26 02:02:22,-0.01,0.42,0.00,29.40,33.54,35.71,9.27,38.70,1009.90,2011.56,3232.27,3161.58,3419.99,499.77,482.93,9.08,0000 0000 0000 0000 000000
2014-08-26 02:07:23,-0.00,0.42,0.00,29.42,33.56,35.74,9.31,38.69,1009.80,2011.37,3231.99,3161.04,3419.53,500.16,483.05,9.12,0000 0000 0000 0000 000000
2014-08-26 07:27:57,0.00,0.00,0.00,23.85,26.62,24.62,8.02,34.76,1007.76,1839.85,3126.59,3010.01,3274.95,430.94,423.17,0.00,0000 0000 0000 0000 000000
2014-08-26 07:32:57,0.00,0.00,0.00,23.90,26.50,26.13,9.32,39.60,1008.14,2042.04,3465.87,3339.05,3633.22,499.94,491.00,0.04,0000 0000 0000 0000 000000
2014-08-26 07:37:59,0.01,0.00,0.00,24.05,26.40,27.14,9.40,39.46,1008.31,2042.00,3464.94,3338.51,3632.06,500.06,491.03,0.09,0000 0000 0000 0000 000000
2014-08-26 07:43:00,0.01,0.00,0.00,24.27,26.33,27.68,9.40,39.36,1008.33,2042.01,3464.24,3338.41,3631.86,499.88,490.45,0.13,0000 0000 0000 0000 000000
2014-08-26 07:48:01,0.03,0.00,0.00,24.58,26.30,28.02,9.38,39.37,1008.55,2042.27,3464.01,3338.21,3631.10,500.39,490.52,0.17,0000 0000 0000 0000 000000
2014-08-26 07:53:02,0.05,0.01,0.00,25.05,26.33,28.30,9.43,39.40,1008.78,2042.71,3463.77,3338.02,3630.66,500.15,489.69,0.21,0000 0000 0000 0000 000000
2014-08-26 07:58:03,0.02,0.01,0.00,25.30,26.38,28.68,9.34,39.30,1008.80,2042.73,3463.05,3337.97,3629.91,499.79,488.81,0.25,0000 0000 0000 0000 000000
2014-08-26 08:03:04,0.00,0.01,0.00,25.31,26.47,29.12,9.39,39.48,1008.80,2042.26,3462.53,3337.24,3628.95,500.17,489.30,0.29,0000 0000 0000 0000 000000
2014-08-26 08:08:05,0.05,0.01,0.00,25.36,26.57,29.47,9.34,39.16,1008.81,2042.00,3461.52,3336.50,3627.87,500.09,489.11,0.34,0000 0000 0000 0000 000000
2014-08-26 08:13:06,0.05,0.01,0.00,25.49,26.70,29.75,9.32,39.22,1008.82,2041.99,3460.66,3335.75,3626.68,499.53,488.40,0.38,0000 0000 0000 0000 000000
2014-08-26 08:18:07,-0.02,0.01,0.00,25.61,26.84,30.00,9.31,39.13,1008.86,2041.55,3459.64,3334.90,3625.50,499.81,488.38,0.42,0000 0000 0000 0000 000000
2014-08-26 08:23:09,0.03,0.01,0.00,25.74,26.99,30.23,9.32,39.13,1008.88,2041.02,3458.70,3333.94,3624.26,499.90,488.28,0.46,0000 0000 0000 0000 000000
2014-08-26 08:28:09,0.04,0.01,0.00,25.86,27.15,30.40,9.35,38.92,1009.04,2040.80,3457.57,3332.93,3622.85,499.87,488.16,0.50,0000 0000 0000 0000 000000
2014-08-26 08:33:11,0.01,0.01,0.00,25.96,27.31,30.54,9.37,39.02,1009.02,2040.04,3456.38,3331.84,3621.42,500.16,488.28,0.55,0000 0000 0000 0000 000000
2014-08-26 08:38:12,0.02,0.02,0.00,26.09,27.47,30.68,9.33,39.04,1009.17,2039.65,3455.15,3330.63,3619.81,499.77,487.79,0.59,0000 0000 0000 0000 000000
2014-08-26 08:43:13,0.04,0.02,0.00,26.18,27.64,30.81,9.38,38.99,1009.28,2039.01,3453.84,3329.50,3618.38,500.16,488.05,0.63,0000 0000 0000 0000 000000
2014-08-26 08:48:14,-0.02,0.02,0.00,26.20,27.80,30.90,9.28,38.83,1009.29,2038.24,3452.51,3328.19,3616.69,499.62,487.45,0.67,0000 0000 0000 0000 000000
2014-08-26 08:53:16,0.04,0.02,0.00,26.19,27.96,30.93,9.26,38.75,1009.29,2037.83,3451.21,3327.05,3615.15,499.50,487.48,0.71,0000 0000 0000 0000 000000
2014-08-26 08:58:17,0.01,0.02,0.00,26.16,28.12,31.00,9.32,38.76,1009.29,2037.05,3449.87,3325.87,3613.67,499.89,487.84,0.76,0000 0000 0000 0000 000000
2014-08-26 09:03:18,-0.00,0.02,0.00,26.08,28.25,31.09,9.39,38.75,1009.29,2036.53,3448.58,3324.73,3612.26,499.87,487.88,0.80,0000 0000 0000 0000 000000
2014-08-26 09:08:20,0.05,0.02,0.00,25.99,28.39,31.20,9.35,38.68,1009.29,2036.01,3447.43,3323.72,3610.85,499.89,488.06,0.84,0000 0000 0000 0000 000000
2014-08-26 09:13:21,-0.02,0.02,0.00,25.99,28.51,31.27,9.39,38.78,1009.29,2035.39,3446.27,3322.66,3609.59,499.84,488.01,0.88,0000 0000 0000 0000 000000
2014-08-26 09:18:22,0.05,0.02,0.00,26.01,28.63,31.34,9.29,38.83,1009.29,2034.98,3445.20,3321.69,3608.42,499.98,488.02,0.92,0000 0000 0000 0000 000000
2014-08-26 09:23:23,-0.03,0.02,0.00,26.03,28.74,31.41,9.32,38.65,1009.29,2034.43,3444.19,3320.78,3607.26,500.00,488.28,0.96,0000 0000 0000 0000 000000
2014-08-26 09:28:24,0.04,0.02,0.00,26.09,28.85,31.47,9.39,38.73,1009.29,2034.00,3443.14,3319.85,3606.03,500.19,488.18,1.01,0000 0000 0000 0000 000000
2014-08-26 09:33:26,-0.01,0.02,0.00,26.15,28.95,31.55,9.37,38.54,1009.31,2033.63,3442.19,3318.94,3604.94,500.23,487.94,1.05,0000 0000 0000 0000 000000
2014-08-26 09:38:27,0.03,0.02,0.00,26.19,29.05,31.62,9.31,38.73,1009.31,2033.02,3441.29,3318.03,3603.89,499.58,487.43,1.09,0000 0000 0000 0000 000000
2014-08-26 09:43:28,0.04,0.03,0.00,26.25,29.15,31.69,9.28,38.63,1009.30,2032.85,3440.31,3317.12,3602.86,499.37,487.20,1.13,0000 0000 0000 0000 000000
2014-08-26 09:48:29,-0.02,0.02,0.00,26.29,29.24,31.77,9.32,38.56,1009.29,2032.08,3439.49,3316.31,3601.83,499.82,487.52,1.17,0000 0000 0000 0000 000000
2014-08-26 09:53:30,0.06,0.03,0.00,26.34,29.33,31.85,9.38,38.66,1009.29,2031.92,3438.53,3315.45,3600.68,500.05,487.65,1.22,0000 0000 0000 0000 000000
2014-08-26 09:58:31,-0.03,0.02,0.00,26.36,29.42,31.91,9.33,38.42,1009.29,2031.18,3437.46,3314.47,3599.62,500.02,487.46,1.26,0000 0000 0000 0000 000000
2014-08-26 10:03:32,0.03,0.03,0.00,26.40,29.50,31.98,9.39,38.55,1009.29,2031.00,3436.70,3313.81,3598.74,499.96,487.53,1.30,0000 0000 0000 0000 000000
2014-08-26 10:08:34,-0.03,0.03,0.00,26.45,29.58,32.04,9.32,38.58,1009.30,2030.52,3435.87,3313.01,3597.77,499.83,487.17,1.34,0000 0000 0000 0000 000000
2014-08-26 10:13:35,0.02,0.03,0.00,26.46,29.66,32.11,9.39,38.63,1009.30,2030.02,3435.05,3312.18,3596.92,500.43,487.70,1.38,0000 0000 0000 0000 000000
2014-08-26 10:18:35,0.05,0.03,0.00,26.49,29.73,32.17,9.31,38.48,1009.30,2029.97,3434.25,3311.60,3595.96,500.17,487.45,1.42,0000 0000 0000 0000 000000
2014-08-26 10:23:36,-0.03,0.03,0.00,26.52,29.80,32.23,9.34,38.69,1009.30,2029.48,3433.42,3310.87,3595.03,499.39,486.75,1.47,0000 0000 0000 0000 000000
2014-08-26 10:28:38,0.03,0.03,0.00,26.55,29.87,32.29,9.33,38.58,1009.30,2029.01,3432.63,3310.05,3594.14,500.01,487.29,1.51,0000 0000 0000 0000 000000
2014-08-26 10:33:39,0.04,0.03,0.00,26.56,29.93,32.35,9.38,38.53,1009.30,2028.97,3431.93,3309.35,3593.26,500.21,487.48,1.55,0000 0000 0000 0000 000000
2014-08-26 10:38:40,-0.03,0.03,0.00,26.58,30.00,32.40,9.34,38.56,1009.29,2028.52,3431.09,3308.95,3592.53,500.31,487.44,1.59,0000 0000 0000 0000 000000
2014-08-26 10:43:41,0.01,0.03,0.00,26.61,30.06,32.45,9.39,38.50,1009.29,2028.05,3430.59,3308.17,3591.89,500.35,487.67,1.63,0000 0000 0000 0000 000000
2014-08-26 10:48:42,0.03,0.03,0.00,26.61,30.12,32.50,9.42,38.67,1009.29,2028.00,3429.87,3307.75,3591.07,500.35,487.53,1.68,0000 0000 0000 0000 000000
2014-08-26 10:53:43,0.04,0.03,0.00,26.63,30.18,32.55,9.34,38.47,1009.30,2027.92,3429.05,3307.03,3590.20,500.19,487.41,1.72,0000 0000 0000 0000 000000
2014-08-26 10:58:45,-0.03,0.03,0.00,26.64,30.23,32.59,9.36,38.37,1009.30,2027.35,3428.31,3306.37,3589.55,499.95,487.14,1.76,0000 0000 0000 0000 000000
2014-08-26 11:03:45,0.01,0.03,0.00,26.67,30.28,32.64,9.26,38.51,1009.29,2027.01,3427.84,3305.94,3588.83,499.46,486.53,1.80,0000 0000 0000 0000 000000
2014-08-26 11:08:47,0.04,0.03,0.00,26.70,30.33,32.68,9.36,38.58,1009.29,2026.99,3427.07,3305.22,3588.07,500.14,487.18,1.84,0000 0000 0000 0000 000000
2014-08-26 11:13:48,-0.00,0.03,0.00,26.71,30.38,32.72,9.38,38.48,1009.29,2026.71,3426.39,3304.89,3587.33,500.31,487.32,1.88,0000 0000 0000 0000 000000
2014-08-26 11:18:49,-0.01,0.03,0.00,26.70,30.43,32.76,9.40,38.38,1009.29,2026.33,3426.00,3304.15,3586.99,500.37,487.46,1.93,0000 0000 0000 0000 000000
2014-08-26 11:23:50,0.00,0.03,0.00,26.71,30.47,32.80,9.36,38.48,1009.30,2026.04,3425.38,3303.99,3586.28,500.24,487.30,1.97,0000 0000 0000 0000 000000
2014-08-26 11:28:51,0.02,0.03,0.00,26.72,30.51,32.83,9.39,38.43,1009.31,2026.00,3424.97,3303.47,3585.84,499.92,486.85,2.01,0000 0000 0000 0000 000000
2014-08-26 11:33:52,0.03,0.04,0.00,26.74,30.55,32.87,9.34,38.41,1009.30,2026.00,3424.23,3303.01,3585.06,499.84,487.04,2.05,0000 0000 0000 0000 000000
2014-08-26 11:38:53,0.01,0.04,0.00,26.73,30.59,32.90,9.38,38.40,1009.31,2025.91,3423.98,3302.75,3584.79,500.06,487.04,2.09,0000 0000 0000 0000 000000
2014-08-26 11:43:54,-0.02,0.04,0.00,26.73,30.62,32.93,9.38,38.59,1009.32,2025.37,3423.21,3302.03,3584.03,500.12,487.29,2.14,0000 0000 0000 0000 000000
2014-08-26 11:48:56,0.01,0.04,0.00,26.75,30.66,32.96,9.32,38.52,1009.33,2025.10,3422.68,3301.80,3583.58,500.04,486.98,2.18,0000 0000 0000 0000 000000
2014-08-26 11:53:57,0.02,0.04,0.00,26.76,30.69,32.99,9.33,38.61,1009.34,2025.01,3422.02,3301.07,3583.01,499.86,486.74,2.22,0000 0000 0000 0000 000000
2014-08-26 11:58:57,0.01,0.04,0.00,26.76,30.72,33.03,9.33,38.45,1009.31,2025.00,3421.81,3301.00,3582.89,499.69,486.63,2.26,0000 0000 0000 0000 000000
2014-08-26 12:03:58,0.04,0.04,0.00,26.77,30.75,33.04,9.32,38.52,1009.30,2025.00,3421.08,3300.63,3582.11,499.84,486.76,2.30,0000 0000 0000 0000 000000
2014-08-26 12:09:00,0.02,0.04,0.00,26.76,30.78,33.07,9.33,38.42,1009.29,2024.95,3420.72,3300.08,3581.78,499.44,486.42,2.34,0000 0000 0000 0000 000000
2014-08-26 12:14:01,-0.02,0.04,0.00,26.76,30.81,33.09,9.31,38.39,1009.29,2024.75,3420.07,3299.96,3581.09,499.33,486.32,2.39,0000 0000 0000 0000 000000
2014-08-26 12:19:02,-0.01,0.04,0.00,26.75,30.83,33.12,9.33,38.39,1009.29,2024.28,3419.92,3299.32,3580.92,499.76,487.00,2.43,0000 0000 0000 0000 000000
2014-08-26 12:24:03,-0.00,0.04,0.00,26.76,30.85,33.13,9.45,38.53,1009.29,2024.06,3419.81,3299.02,3580.27,500.42,487.32,2.47,0000 0000 0000 0000 000000
2014-08-26 12:29:04,0.01,0.04,0.00,26.77,30.87,33.15,9.37,38.55,1009.29,2024.00,3419.10,3298.98,3580.00,500.05,486.97,2.51,0000 0000 0000 0000 000000
2014-08-26 12:34:05,0.03,0.04,0.00,26.77,30.90,33.17,9.34,38.42,1009.29,2024.00,3418.90,3298.60,3579.59,499.79,486.77,2.55,0000 0000 0000 0000 000000
2014-08-26 12:39:06,0.02,0.04,0.00,26.77,30.91,33.20,9.39,38.42,1009.29,2023.98,3418.26,3298.04,3579.04,500.26,486.99,2.60,0000 0000 0000 0000 000000
2014-08-26 12:44:07,0.01,0.04,0.00,26.78,30.93,33.21,9.39,38.55,1009.29,2023.97,3417.80,3297.98,3578.78,499.96,486.69,2.64,0000 0000 0000 0000 000000
2014-08-26 12:49:09,0.03,0.04,0.00,26.75,30.95,33.23,9.39,38.26,1009.29,2023.96,3417.05,3297.63,3578.08,500.45,487.54,2.68,0000 0000 0000 0000 000000
2014-08-26 12:54:10,0.01,0.04,0.00,26.75,30.96,33.24,9.38,38.38,1009.29,2023.89,3416.78,3297.07,3577.96,500.28,487.26,2.72,0000 0000 0000 0000 000000
2014-08-26 12:59:11,0.00,0.05,0.00,26.75,30.97,33.25,9.33,38.38,1009.29,2023.72,3416.05,3297.00,3577.31,500.17,487.01,2.76,0000 0000 0000 0000 000000
2014-08-26 13:04:12,-0.00,0.05,0.00,26.73,30.98,33.26,9.39,38.48,1009.29,2023.52,3415.82,3296.73,3577.00,499.92,486.70,2.80,0000 0000 0000 0000 000000
2014-08-26 13:09:13,0.04,0.05,0.00,26.71,31.00,33.27,9.30,38.42,1009.30,2023.52,3415.16,3296.22,3576.82,499.98,486.99,2.85,0000 0000 0000 0000 000000
2014-08-26 13:14:14,-0.02,0.05,0.00,26.71,31.00,33.28,9.46,38.38,1009.30,2023.29,3414.90,3296.00,3576.15,500.66,487.65,2.89,0000 0000 0000 0000 000000
2014-08-26 13:19:15,-0.00,0.05,0.00,26.72,31.02,33.29,9.39,38.28,1009.29,2023.08,3414.13,3295.94,3575.98,500.10,487.12,2.93,0000 0000 0000 0000 000000
2014-08-26 13:24:16,0.03,0.05,0.00,26.72,31.02,33.30,9.31,38.23,1009.29,2023.06,3413.91,3295.36,3575.45,500.16,487.03,2.97,0000 0000 0000 0000 000000
2014-08-26 13:29:17,0.02,0.05,0.00,26.72,31.02,33.31,9.37,38.38,1009.29,2023.05,3413.24,3295.03,3575.01,500.63,487.45,3.01,0000 0000 0000 0000 000000
2014-08-26 13:34:18,0.00,0.05,0.00,26.70,31.04,33.32,9.40,38.60,1009.29,2023.01,3413.00,3294.99,3574.92,500.02,487.09,3.06,0000 0000 0000 0000 000000
2014-08-26 13:39:20,0.01,0.05,0.00,26.68,31.05,33.31,9.37,38.61,1009.29,2023.01,3412.90,3294.93,3574.47,500.09,486.83,3.10,0000 0000 0000 0000 000000
2014-08-26 13:44:21,0.04,0.05,0.00,26.68,31.05,33.32,9.43,38.42,1009.29,2023.03,3412.11,3294.33,3574.03,500.39,487.47,3.14,0000 0000 0000 0000 000000
2014-08-26 13:49:22,0.01,0.05,0.00,26.67,31.05,33.32,9.40,38.59,1009.29,2023.01,3411.94,3294.01,3573.96,499.93,487.10,3.18,0000 0000 0000 0000 000000
2014-08-26 13:54:23,0.02,0.05,0.00,26.65,31.05,33.33,9.39,38.36,1009.29,2023.00,3411.27,3294.00,3573.42,500.09,487.20,3.22,0000 0000 0000 0000 000000
2014-08-26 13:59:24,0.01,0.05,0.00,26.65,31.06,33.33,9.41,38.52,1009.29,2023.00,3410.96,3293.72,3573.02,500.37,487.55,3.26,0000 0000 0000 0000 000000
2014-08-26 14:04:25,0.03,0.05,0.00,26.64,31.07,33.34,9.38,38.66,1009.29,2023.00,3410.17,3293.07,3572.81,499.65,486.88,3.31,0000 0000 0000 0000 000000
2014-08-26 14:09:26,0.01,0.06,0.00,26.66,31.07,33.33,9.35,38.57,1009.30,2023.00,3410.01,3293.00,3572.10,499.89,487.15,3.35,0000 0000 0000 0000 000000
2014-08-26 14:14:27,0.00,0.06,0.00,26.65,31.07,33.33,9.41,38.73,1009.29,2022.99,3409.83,3292.99,3572.00,500.49,487.43,3.39,0000 0000 0000 0000 000000
2014-08-26 14:19:28,0.03,0.06,0.00,26.63,31.07,33.33,9.41,38.52,1009.29,2023.00,3409.06,3292.55,3571.82,500.02,487.06,3.43,0000 0000 0000 0000 000000
2014-08-26 14:24:29,0.02,0.06,0.00,26.62,31.07,33.33,9.34,38.48,1009.29,2022.99,3408.92,3292.04,3571.11,500.33,487.14,3.47,0000 0000 0000 0000 000000
2014-08-26 14:29:30,0.01,0.06,0.00,26.61,31.07,33.33,9.45,38.84,1009.29,2022.99,3408.09,3292.00,3571.00,500.28,487.45,3.52,0000 0000 0000 0000 000000
2014-08-26 14:34:32,0.01,0.06,0.00,26.58,31.07,33.33,9.37,38.43,1009.29,2023.00,3407.99,3292.00,3570.94,499.85,487.18,3.56,0000 0000 0000 0000 000000
2014-08-26 14:39:33,0.04,0.06,0.00,26.58,31.07,33.33,9.41,38.55,1009.29,2023.01,3407.40,3291.72,3570.33,500.75,487.95,3.60,0000 0000 0000 0000 000000
2014-08-26 14:44:34,0.02,0.06,0.00,26.57,31.07,33.33,9.30,38.64,1009.29,2023.00,3406.96,3291.08,3570.00,499.73,487.09,3.64,0000 0000 0000 0000 000000
2014-08-26 14:49:35,0.02,0.06,0.00,26.55,31.07,33.31,9.47,38.61,1009.29,2023.00,3406.25,3290.99,3569.58,500.58,487.78,3.68,0000 0000 0000 0000 000000
2014-08-26 14:54:36,0.02,0.06,0.00,26.54,31.07,33.31,9.39,38.63,1009.30,2023.00,3405.95,3290.68,3569.02,499.54,486.76,3.72,0000 0000 0000 0000 000000
2014-08-26 14:59:37,0.04,0.07,0.00,26.55,31.07,33.31,9.39,38.59,1009.29,2023.00,3405.16,3290.04,3568.75,500.00,487.46,3.77,0000 0000 0000 0000 000000
2014-08-26 15:04:38,0.01,0.07,0.00,26.52,31.07,33.31,9.37,38.91,1009.29,2023.01,3404.92,3290.00,3568.16,499.83,487.15,3.81,0000 0000 0000 0000 000000
2014-08-26 15:09:40,0.03,0.07,0.00,26.53,31.06,33.30,9.40,38.68,1009.29,2023.02,3404.18,3289.81,3568.00,500.16,487.45,3.85,0000 0000 0000 0000 000000
2014-08-26 15:14:40,0.03,0.07,0.00,26.53,31.06,33.30,9.36,38.72,1009.31,2023.04,3403.87,3289.16,3567.77,499.55,486.92,3.89,0000 0000 0000 0000 000000
2014-08-26 15:19:42,0.02,0.07,0.00,26.50,31.05,33.31,9.51,38.81,1009.30,2023.04,3403.07,3289.00,3567.06,500.18,487.56,3.93,0000 0000 0000 0000 000000
2014-08-26 15:24:43,0.01,0.07,0.00,26.49,31.05,33.30,9.35,38.88,1009.31,2023.05,3402.81,3288.90,3566.94,499.91,487.36,3.98,0000 0000 0000 0000 000000
2014-08-26 15:29:44,0.06,0.07,0.00,26.47,31.05,33.29,9.37,38.83,1009.31,2023.14,3402.06,3288.24,3566.24,500.11,487.52,4.02,0000 0000 0000 0000 000000
2014-08-26 15:34:45,0.03,0.07,0.00,26.48,31.05,33.28,9.40,38.92,1009.35,2023.19,3401.61,3288.00,3565.99,500.22,487.56,4.06,0000 0000 0000 0000 000000
2014-08-26 15:39:46,0.01,0.07,0.00,26.46,31.05,33.28,9.45,39.06,1009.51,2023.27,3401.03,3287.98,3565.73,499.88,487.66,4.10,0000 0000 0000 0000 000000
2014-08-26 15:44:47,0.07,0.08,0.00,26.47,31.04,33.27,9.41,39.00,1009.73,2023.59,3400.78,3287.68,3565.09,499.75,487.27,4.14,0000 0000 0000 0000 000000
2014-08-26 15:49:49,0.04,0.08,0.00,26.44,31.03,33.27,9.35,38.83,1009.80,2023.78,3400.06,3287.09,3565.00,499.77,487.36,4.18,0000 0000 0000 0000 000000
2014-08-26 15:54:50,0.03,0.08,0.00,26.43,31.02,33.27,9.37,38.96,1010.19,2023.86,3399.72,3287.00,3564.62,499.87,487.78,4.23,0000 0000 0000 0000 000000
2014-08-26 15:59:52,0.02,0.08,0.00,26.42,31.02,33.25,9.46,38.88,1010.25,2023.87,3399.03,3286.81,3564.03,500.03,488.06,4.27,0000 0000 0000 0000 000000
2014-08-26 16:04:53,0.03,0.08,0.00,26.41,31.02,33.24,9.40,38.99,1010.27,2023.84,3398.74,3286.12,3563.96,499.85,487.87,4.31,0000 0000 0000 0000 000000
2014-08-26 16:09:54,0.03,0.08,0.00,26.41,31.00,33.25,9.42,38.92,1010.28,2023.91,3398.06,3286.00,3563.37,500.10,488.06,4.35,0000 0000 0000 0000 000000
2014-08-26 16:14:55,0.00,0.08,0.00,26.38,31.00,33.24,9.41,38.72,1010.42,2023.91,3397.98,3285.99,3563.01,500.12,488.13,4.39,0000 0000 0000 0000 000000
2014-08-26 16:19:56,0.01,0.08,0.00,26.37,31.00,33.22,9.40,39.07,1010.70,2023.96,3397.57,3285.93,3563.00,500.01,488.28,4.44,0000 0000 0000 0000 000000
2014-08-26 16:24:57,0.03,0.09,0.00,26.36,30.99,33.21,9.45,38.77,1010.76,2023.92,3397.02,3285.30,3562.51,499.81,488.23,4.48,0000 0000 0000 0000 000000
2014-08-26 16:29:58,0.01,0.09,0.00,26.37,30.97,33.19,9.43,38.73,1010.76,2023.95,3396.98,3285.08,3562.09,500.19,488.51,4.52,0000 0000 0000 0000 000000
2014-08-26 16:34:59,0.01,0.09,0.00,26.35,30.97,33.18,9.46,38.93,1010.76,2023.97,3396.39,3285.00,3562.00,500.33,488.58,4.56,0000 0000 0000 0000 000000
2014-08-26 16:40:00,0.00,0.09,0.00,26.37,30.96,33.20,9.44,38.75,1010.81,2023.98,3396.01,3285.00,3561.99,499.98,488.11,4.60,0000 0000 0000 0000 000000
2014-08-26 16:45:01,0.00,0.09,0.00,26.35,30.95,33.16,9.35,38.83,1011.07,2023.99,3396.00,3284.99,3561.83,499.73,488.23,4.64,0000 0000 0000 0000 000000
2014-08-26 16:50:02,0.01,0.09,0.00,26.36,30.95,33.17,9.50,38.97,1011.24,2023.99,3395.90,3284.93,3561.19,500.37,488.92,4.69,0000 0000 0000 0000 000000
2014-08-26 16:55:03,0.02,0.09,0.00,26.35,30.92,33.17,9.38,38.98,1011.26,2023.99,3395.50,3284.74,3561.02,499.60,488.11,4.73,0000 0000 0000 0000 000000
2014-08-26 17:00:04,0.13,0.09,0.00,26.34,30.92,33.16,9.48,38.91,1011.27,2023.98,3393.20,3283.32,3559.50,500.30,488.79,4.77,0000 0000 0000 0000 000000
2014-08-26 17:05:05,-0.00,0.10,0.00,26.33,30.91,33.14,9.42,38.83,1011.32,2023.99,3392.68,3282.95,3558.99,500.17,488.85,4.81,0000 0000 0000 0000 000000
2014-08-26 17:10:06,-0.00,0.10,0.00,26.32,30.90,33.13,9.47,39.06,1011.63,2023.99,3392.91,3282.95,3558.98,500.21,488.93,4.85,0000 0000 0000 0000 000000
2014-08-26 17:15:07,-0.00,0.10,0.00,26.33,30.90,33.13,9.36,39.05,1011.61,2023.95,3392.97,3282.94,3558.98,499.80,488.51,4.90,0000 0000 0000 0000 000000
2014-08-26 17:20:08,-0.00,0.10,0.00,26.32,30.87,33.13,9.45,39.00,1011.72,2023.95,3392.99,3282.97,3558.98,499.88,488.78,4.94,0000 0000 0000 0000 000000
2014-08-26 17:25:09,0.00,0.10,0.00,26.32,30.87,33.11,9.48,39.23,1011.73,2023.96,3392.99,3282.99,3558.99,500.00,488.83,4.98,0000 0000 0000 0000 000000
2014-08-26 17:30:10,-0.00,0.10,0.00,26.29,30.85,33.10,9.41,39.07,1011.73,2023.93,3392.99,3282.99,3558.99,499.81,488.97,5.02,0000 0000 0000 0000 000000
2014-08-26 17:35:11,0.00,0.10,0.00,26.27,30.85,33.08,9.39,38.90,1011.73,2023.94,3392.99,3282.99,3558.99,500.08,489.00,5.06,0000 0000 0000 0000 000000
2014-08-26 17:40:11,-0.00,0.10,0.00,26.27,30.83,33.09,9.34,38.78,1011.74,2023.97,3392.99,3282.99,3559.00,500.04,488.92,5.10,0000 0000 0000 0000 000000
2014-08-26 17:45:13,0.00,0.10,0.00,26.25,30.82,33.08,9.45,38.90,1011.89,2023.96,3392.99,3282.99,3559.00,499.64,488.84,5.15,0000 0000 0000 0000 000000
2014-08-26 17:50:14,0.00,0.10,0.00,26.25,30.80,33.07,9.42,38.88,1012.20,2023.99,3393.00,3282.99,3559.00,500.08,489.41,5.19,0000 0000 0000 0000 000000
2014-08-26 17:55:15,0.00,0.10,0.00,26.22,30.80,33.04,9.49,38.80,1012.22,2023.99,3393.00,3283.00,3559.00,500.61,489.75,5.23,0000 0000 0000 0000 000000
2014-08-26 18:00:17,0.00,0.10,0.00,26.20,30.78,33.04,9.47,38.76,1012.22,2023.99,3393.00,3283.00,3559.01,500.12,489.07,5.27,0000 0000 0000 0000 000000
2014-08-26 18:05:18,0.00,0.10,0.00,26.18,30.77,33.03,9.47,38.91,1012.23,2023.99,3393.00,3283.01,3559.00,500.17,489.35,5.31,0000 0000 0000 0000 000000
2014-08-26 18:10:19,0.00,0.10,0.00,26.17,30.75,33.02,9.42,39.11,1012.35,2023.99,3393.00,3283.03,3559.00,500.10,489.75,5.36,0000 0000 0000 0000 000000
2014-08-26 18:15:20,0.00,0.10,0.00,26.16,30.75,33.00,9.46,38.92,1012.68,2023.99,3393.00,3283.06,3559.01,500.00,489.50,5.40,0000 0000 0000 0000 000000
2014-08-26 18:20:21,0.00,0.10,0.00,26.14,30.73,32.99,9.44,38.84,1012.71,2023.99,3393.00,3283.05,3559.01,499.63,489.02,5.44,0000 0000 0000 0000 000000